Location: Mauries
(43.6188°N, 0.3322°W)
Time: 12:47:39
(UTC+00:00)

Envisat - Pass Details

Date: 20 March 2026
Orbit: 761 x 762 km, 98.4° (Epoch: 14 April)

Event Time Altitude Azimuth Distance (km) Brightness Sun altitude
Rises 04:33:25 0° 353° (N) 3,234 6.4 -17.2°
Reaches altitude 10° 04:37:39 10° 318° (NW) 2,301 5.2 -16.4°
Enters shadow 04:38:42 11° 306° (NW) 2,239 5.1 -16.2°
